Location: ČR
(50.0000°N, 15.0000°E)
Time: 13:55:24
(UTC+00:00)

Explorer 7 - Pass Details

Date: 23 October 2021
Orbit: 483 x 675 km, 50.3° (Epoch: 27 November)

Event Time Altitude Azimuth Distance (km) Brightness Sun altitude
Rises 20:47:18 0° 230° (SW) 2,661 - -44.8°
Reaches altitude 10° 20:49:31 10° 224° (SW) 1,804 - -45.0°
Maximum altitude 20:53:25 44° 152° (SSE) 794 - -45.5°
Drops below altitude 10° 20:57:36 10° 80° (E) 1,927 - -45.9°
Sets 21:00:02 0° 74° (ENE) 2,868 - -46.1°
